EW6327 Weather Reports


time (UTC)temp
C
wind
direction
speed
KPH
gust
KPH
rain 1hr
cm
rain 24hr
cm
rain mn
cm
humidity
%
barometer
mb
20260507182558 18 38 0.0 0.0 0.00 0.43 0.25 33 1004.3
20260507182059 18 93 0.0 0.0 0.00 0.43 0.25 35 1004.4
20260507181558 18 130 0.0 0.0 0.00 0.43 0.25 35 1004.5
20260507181056 18 326 0.0 0.0 0.00 0.43 0.25 33 1004.3
20260507180554 18 337 0.0 0.0 0.00 0.43 0.25 37 1004.4
20260507180054 18 128 0.0 0.0 0.00 0.43 0.25 36 1004.5
20260507175554 18 55 0.0 0.0 0.00 0.43 0.25 38 1004.4
20260507175052 18 355 0.0 0.0 0.00 0.43 0.25 37 1004.5
20260507174552 18 88 0.0 0.0 0.00 0.43 0.25 37 1004.7
20260507174051 18 347 0.0 0.0 0.00 0.43 0.25 39 1004.5
20260507173550 17 81 0.0 0.0 0.00 0.43 0.25 41 1004.5
20260507173050 17 309 0.0 1.6 0.00 0.43 0.25 40 1004.5
20260507172549 18 142 0.0 0.0 0.00 0.43 0.25 37 1004.6
20260507172048 17 37 0.0 0.0 0.00 0.43 0.25 38 1004.6
20260507171547 17 344 0.0 0.0 0.00 0.43 0.25 40 1004.7
20260507171047 17 51 0.0 0.0 0.00 0.43 0.25 42 1004.7
20260507170547 17 351 0.0 0.0 0.00 0.43 0.25 38 1004.8
20260507170051 17 247 0.0 1.6 0.00 0.43 0.25 43 1004.8
20260507165545 17 360 0.0 1.6 0.00 0.43 0.25 43 1004.8
20260507165045 17 312 0.0 1.6 0.00 0.43 0.25 46 1005.0
20260507164557 17 324 0.0 0.0 0.00 0.43 0.25 43 1005.0
20260507164144 17 5 0.0 1.6 0.00 0.43 0.25 48 1005.0
20260507163544 17 315 0.0 0.0 0.00 0.43 0.25 42 1005.0
20260507163043 17 341 0.0 0.0 0.00 0.43 0.25 44 1005.1
20260507162543 17 112 0.0 0.0 0.00 0.43 0.25 45 1005.1
20260507162042 17 51 0.0 0.0 0.00 0.43 0.25 44 1005.1
20260507161542 17 311 0.0 0.0 0.00 0.43 0.25 42 1005.2
20260507161043 17 360 0.0 0.0 0.00 0.43 0.25 45 1005.3
20260507160541 17 113 0.0 0.0 0.03 0.43 0.25 46 1005.2
20260507160041 17 5 0.0 11.3 0.03 0.43 0.25 48 1005.4
20260507155539 16 92 0.0 11.3 0.03 0.43 0.25 47 1005.4
20260507155039 16 165 0.0 0.0 0.03 0.43 0.25 48 1005.5
20260507154545 16 360 0.0 0.0 0.03 0.43 0.25 52 1005.5
20260507154038 16 298 0.0 0.0 0.03 0.43 0.25 49 1005.5
20260507153536 16 302 0.0 0.0 0.03 0.43 0.25 51 1005.5
20260507153035 16 26 0.0 0.0 0.03 0.43 0.25 55 1005.4
20260507152534 16 300 0.0 0.0 0.03 0.43 0.25 53 1005.6
20260507152033 16 109 0.0 0.0 0.03 0.43 0.25 56 1005.6
20260507151533 16 144 0.0 0.0 0.03 0.43 0.25 57 1005.7
20260507151031 16 268 0.0 0.0 0.03 0.43 0.25 59 1005.7
20260507150531 16 175 0.0 0.0 0.00 0.41 0.23 60 1005.6
20260507150030 16 269 0.0 0.0 0.00 0.41 0.23 58 1005.7
20260507145529 15 325 0.0 0.0 0.00 0.41 0.23 63 1005.8
20260507145028 15 306 0.0 0.0 0.00 0.41 0.23 61 1005.8
20260507144532 15 315 0.0 0.0 0.00 0.41 0.23 65 1005.8
20260507144027 15 76 0.0 0.0 0.00 0.41 0.23 63 1005.9
20260507143526 15 5 0.0 3.2 0.00 0.41 0.23 66 1005.9
20260507143031 15 260 0.0 3.2 0.03 0.41 0.23 64 1006.0
20260507142526 14 101 0.0 0.0 0.03 0.41 0.23 64 1006.2
20260507142025 14 22 0.0 0.0 0.03 0.41 0.23 64 1006.0
20260507141525 14 340 0.0 0.0 0.03 0.41 0.23 64 1006.0
20260507141024 14 15 0.0 0.0 0.03 0.41 0.23 63 1006.1
20260507140524 14 16 0.0 0.0 0.03 0.41 0.23 65 1006.0
20260507140027 14 59 0.0 0.0 0.03 0.41 0.23 67 1006.0
20260507135523 13 139 0.0 0.0 0.03 0.41 0.23 71 1006.1
20260507135022 13 223 0.0 0.0 0.05 0.41 0.23 68 1006.0
20260507134527 13 125 0.0 0.0 0.05 0.41 0.23 72 1006.1
20260507134022 13 123 0.0 0.0 0.05 0.41 0.23 71 1006.0
20260507133522 13 55 0.0 0.0 0.05 0.41 0.23 73 1006.1
20260507133024 13 5 0.0 0.0 0.03 0.38 0.20 73 1006.1
20260507132521 13 288 0.0 0.0 0.03 0.38 0.20 76 1006.2
20260507132019 12 74 0.0 0.0 0.03 0.38 0.20 80 1006.2
20260507131521 12 100 0.0 0.0 0.03 0.38 0.20 81 1006.2
20260507131018 12 109 0.0 0.0 0.03 0.38 0.20 82 1006.3
20260507130517 12 110 0.0 0.0 0.03 0.38 0.20 82 1006.3
20260507130017 12 104 0.0 0.0 0.03 0.38 0.20 83 1006.3
20260507125517 11 107 0.0 0.0 0.03 0.38 0.20 85 1006.3
20260507125016 11 309 0.0 0.0 0.00 0.36 0.18 88 1006.2
20260507124524 11 300 0.0 0.0 0.00 0.36 0.18 87 1006.4
20260507124016 11 271 0.0 0.0 0.00 0.36 0.18 89 1006.4
20260507123518 11 173 0.0 0.0 0.00 0.36 0.18 89 1006.5
20260507123016 10 180 0.0 0.0 0.00 0.36 0.18 90 1006.5
20260507122519 10 177 0.0 0.0 0.00 0.36 0.18 90 1006.6
20260507122017 10 173 0.0 0.0 0.03 0.36 0.18 90 1006.6
20260507121514 10 173 0.0 0.0 0.03 0.36 0.18 90 1006.6
20260507121014 10 275 0.0 0.0 0.03 0.36 0.18 90 1006.4
20260507120513 10 173 0.0 0.0 0.03 0.36 0.18 90 1006.4
20260507120017 10 173 0.0 0.0 0.03 0.36 0.18 90 1006.4
20260507115513 10 187 0.0 0.0 0.03 0.36 0.18 90 1006.3
20260507115011 9 192 0.0 0.0 0.03 0.36 0.18 90 1006.3
20260507114512 9 204 0.0 0.0 0.03 0.36 0.18 90 1006.3
20260507114011 9 204 0.0 0.0 0.05 0.36 0.18 90 1006.4
20260507113513 9 204 0.0 0.0 0.05 0.36 0.18 90 1006.3
20260507113014 9 204 0.0 0.0 0.05 0.36 0.18 90 1006.3
20260507112514 9 204 0.0 0.0 0.05 0.36 0.18 90 1006.3
20260507112010 9 204 0.0 0.0 0.03 0.33 0.15 89 1006.2
20260507111509 9 204 0.0 0.0 0.03 0.33 0.15 90 1006.1
20260507111008 9 128 0.0 0.0 0.03 0.33 0.15 90 1006.2
20260507110508 9 128 0.0 0.0 0.03 0.33 0.15 90 1006.1
20260507110008 9 128 0.0 0.0 0.03 0.33 0.15 90 1006.1
20260507105507 9 57 0.0 0.0 0.03 0.33 0.15 90 1005.9
20260507105010 9 57 0.0 0.0 0.05 0.33 0.15 90 1005.8
20260507104507 8 57 0.0 0.0 0.03 0.30 0.13 90 1005.8
20260507104007 8 56 0.0 0.0 0.03 0.30 0.13 90 1006.0
20260507103507 8 57 0.0 0.0 0.03 0.30 0.13 90 1006.2
20260507103009 8 57 0.0 0.0 0.03 0.30 0.13 90 1006.3
20260507102506 8 57 0.0 0.0 0.05 0.30 0.13 90 1006.2
20260507102007 8 57 0.0 0.0 0.05 0.30 0.13 90 1006.3
20260507101512 8 57 0.0 0.0 0.05 0.30 0.13 90 1006.0
20260507101006 8 57 0.0 0.0 0.05 0.30 0.13 90 1005.7
20260507100503 8 57 0.0 0.0 0.05 0.30 0.13 90 1005.8
20260507100006 8 57 0.0 0.0 0.05 0.30 0.13 90 1005.8
20260507095503 8 57 0.0 0.0 0.08 0.30 0.13 90 1005.9
20260507095003 8 57 0.0 0.0 0.05 0.28 0.10 90 1005.6
20260507094502 9 26 0.0 0.0 0.05 0.28 0.10 90 1005.6
20260507094001 9 26 0.0 0.0 0.05 0.28 0.10 90 1005.5
20260507093503 9 26 0.0 0.0 0.08 0.28 0.10 90 1005.5
20260507093002 9 26 0.0 0.0 0.05 0.25 0.08 90 1005.5
20260507092601 9 26 0.0 0.0 0.05 0.25 0.08 90 1005.6
20260507092102 9 50 0.0 0.0 0.05 0.25 0.08 90 1005.5
20260507091559 9 34 0.0 0.0 0.05 0.25 0.08 90 1005.5
20260507091059 9 355 0.0 0.0 0.05 0.25 0.08 90 1005.4
20260507090558 9 340 0.0 1.6 0.08 0.25 0.08 89 1005.5
20260507090101 9 340 0.0 1.6 0.08 0.25 0.08 89 1005.7
20260507085556 9 340 0.0 0.0 0.05 0.23 0.05 89 1005.8
20260507085059 10 340 0.0 0.0 0.05 0.23 0.05 89 1005.8
20260507084601 10 340 0.0 0.0 0.05 0.23 0.05 88 1005.8
20260507084059 10 340 0.0 0.0 0.05 0.23 0.05 88 1005.8
20260507083554 10 340 0.0 0.0 0.03 0.20 0.03 88 1005.9
20260507083053 10 340 0.0 0.0 0.03 0.20 0.03 87 1005.7
20260507082552 10 340 0.0 0.0 0.03 0.20 0.03 87 1005.6
20260507082052 10 340 0.0 0.0 0.03 0.20 0.03 86 1005.4
20260507081552 10 28 0.0 0.0 0.03 0.20 0.03 85 1005.6
20260507081049 10 28 0.0 0.0 0.03 0.20 0.03 85 1005.4
20260507080548 10 82 0.0 0.0 0.00 0.18 0.00 84 1005.5
20260507080104 11 82 0.0 0.0 0.00 0.18 0.00 84 1005.7
20260507075546 11 71 0.0 0.0 0.00 0.18 0.00 83 1005.6
20260507075045 11 32 0.0 0.0 0.00 0.18 0.00 83 1005.7
20260507074544 11 147 0.0 0.0 0.00 0.18 0.00 84 1005.4
20260507074044 11 229 0.0 0.0 0.00 0.18 0.00 83 1005.3
20260507073542 11 190 0.0 0.0 0.00 0.18 0.00 82 1005.3
20260507073041 12 5 0.0 0.0 0.00 0.18 0.00 82 1005.3
20260507072540 12 355 0.0 0.0 0.00 0.18 0.00 82 1005.2
20260507072038 12 32 0.0 0.0 0.00 0.18 0.00 82 1004.9
20260507071538 12 286 0.0 0.0 0.00 0.18 0.00 83 1004.6
20260507071043 12 338 0.0 0.0 0.00 0.18 0.00 84 1004.5
20260507070536 12 338 0.0 0.0 0.00 0.18 0.00 85 1004.5
20260507070036 12 9 0.0 0.0 0.00 0.18 0.00 85 1004.4
20260507065538 12 15 0.0 0.0 0.00 0.18 0.00 86 1004.4
20260507065034 12 5 0.0 0.0 0.00 0.18 0.00 86 1004.4
20260507064534 12 5 0.0 0.0 0.00 0.18 0.00 85 1004.4
20260507064034 12 5 0.0 0.0 0.00 0.18 0.00 85 1004.5
20260507063533 12 5 0.0 0.0 0.00 0.18 0.00 85 1004.6
20260507063034 12 82 0.0 0.0 0.00 0.18 0.00 85 1004.8
20260507062534 12 355 0.0 0.0 0.00 0.18 0.00 84 1004.8
20260507062033 12 355 0.0 0.0 0.00 0.18 0.00 85 1004.7
20260507061533 12 355 0.0 0.0 0.00 0.18 0.00 85 1004.6
20260507061031 12 346 0.0 0.0 0.00 0.18 0.00 85 1004.4
20260507060531 12 347 0.0 0.0 0.00 0.18 0.00 85 1004.4
20260507060031 12 347 0.0 1.6 0.00 0.18 0.00 85 1004.5
20260507055531 13 341 0.0 0.0 0.00 0.18 0.00 84 1004.6
20260507055033 13 17 0.0 0.0 0.00 0.18 0.00 84 1004.6
20260507054536 13 32 0.0 0.0 0.00 0.18 0.00 85 1004.7
20260507054029 13 350 0.0 0.0 0.00 0.18 0.00 84 1004.7
20260507053529 13 88 0.0 0.0 0.00 0.18 0.00 85 1004.8
20260507053028 13 111 0.0 0.0 0.00 0.18 0.00 86 1005.0
20260507052527 13 18 0.0 0.0 0.00 0.18 0.00 86 1005.0
20260507052026 13 80 0.0 0.0 0.00 0.18 0.00 86 1004.8
20260507051525 13 111 0.0 0.0 0.00 0.18 0.00 88 1004.9
20260507051024 14 101 0.0 0.0 0.00 0.18 0.00 89 1004.8
20260507050522 14 19 0.0 0.0 0.00 0.18 0.00 89 1004.6
20260507050027 14 30 0.0 0.0 0.00 0.18 0.00 89 1004.6
20260507045522 14 360 0.0 0.0 0.00 0.18 0.00 89 1004.6
20260507045022 14 298 0.0 0.0 0.00 0.18 0.00 89 1004.7
20260507044521 14 355 0.0 0.0 0.00 0.18 0.00 89 1004.7
20260507044020 14 26 0.0 0.0 0.00 0.18 0.00 89 1004.7
20260507043519 14 32 0.0 0.0 0.00 0.18 0.00 90 1004.7
20260507043023 15 28 0.0 0.0 0.00 0.18 0.00 90 1004.6
20260507042517 15 47 0.0 0.0 0.00 0.18 0.00 90 1004.4
20260507042016 15 292 0.0 0.0 0.00 0.18 0.00 89 1004.3
20260507041517 15 279 0.0 0.0 0.00 0.18 0.00 89 1004.6
20260507041015 15 268 0.0 0.0 0.00 0.18 0.00 89 1004.6
20260507040517 15 9 0.0 0.0 0.00 0.18 0.00 89 1004.5
20260507040014 15 230 0.0 0.0 0.00 0.18 0.00 88 1004.5
20260507035513 15 335 0.0 0.0 0.03 0.18 0.18 88 1004.8
20260507035013 15 243 0.0 0.0 0.03 0.18 0.18 88 1004.8
20260507034512 15 344 0.0 0.0 0.03 0.18 0.18 87 1004.7
20260507034013 15 248 0.0 0.0 0.03 0.18 0.18 87 1004.8
20260507033514 15 326 0.0 0.0 0.03 0.18 0.18 88 1004.6
20260507033012 15 355 0.0 0.0 0.03 0.18 0.18 88 1004.5
20260507032511 15 242 0.0 0.0 0.03 0.18 0.18 88 1004.5
20260507032011 15 286 0.0 0.0 0.03 0.18 0.18 88 1004.5
20260507031512 15 286 0.0 0.0 0.03 0.18 0.18 88 1004.4
20260507031011 15 290 0.0 0.0 0.03 0.18 0.18 88 1004.3
20260507030511 15 271 0.0 0.0 0.03 0.18 0.18 88 1004.2
20260507030013 15 302 0.0 0.0 0.03 0.18 0.18 88 1004.2
20260507025512 15 221 0.0 0.0 0.00 0.15 0.15 88 1004.2
20260507025011 15 254 0.0 0.0 0.00 0.15 0.15 88 1004.3
20260507024512 15 255 0.0 0.0 0.00 0.15 0.15 87 1004.1
20260507024013 15 241 0.0 0.0 0.00 0.15 0.15 87 1004.0
20260507023510 15 303 0.0 0.0 0.00 0.15 0.15 87 1004.2
20260507023010 15 269 0.0 0.0 0.00 0.15 0.15 87 1004.2
20260507022510 15 271 0.0 0.0 0.00 0.15 0.15 87 1004.3
20260507022011 15 248 0.0 0.0 0.00 0.15 0.15 87 1004.1
20260507021510 15 246 0.0 0.0 0.00 0.15 0.15 87 1004.1
20260507021009 14 238 0.0 0.0 0.00 0.15 0.15 87 1004.1
20260507020512 14 278 0.0 1.6 0.00 0.15 0.15 87 1004.2
20260507020009 14 246 0.0 1.6 0.00 0.15 0.15 87 1004.3
20260507015508 14 294 0.0 0.0 0.00 0.15 0.15 87 1004.3
20260507015008 14 336 0.0 0.0 0.00 0.15 0.15 87 1004.3
20260507014508 14 249 0.0 0.0 0.00 0.15 0.15 87 1004.1
20260507014011 14 347 0.0 0.0 0.00 0.15 0.15 87 1004.1
20260507013508 14 277 0.0 0.0 0.00 0.15 0.15 87 1004.1
20260507013017 14 269 0.0 0.0 0.00 0.15 0.15 87 1004.2
20260507012507 14 236 0.0 0.0 0.00 0.15 0.15 87 1004.4
20260507012009 14 259 0.0 0.0 0.00 0.15 0.15 87 1004.4
20260507011511 14 340 0.0 0.0 0.00 0.15 0.15 87 1004.5
20260507011006 14 268 0.0 0.0 0.00 0.15 0.15 88 1004.6
20260507010506 14 238 0.0 0.0 0.00 0.15 0.15 88 1004.6
20260507010010 14 250 0.0 0.0 0.00 0.15 0.15 88 1004.4
20260507005506 14 260 0.0 0.0 0.00 0.15 0.15 88 1004.5
20260507005005 14 236 0.0 0.0 0.00 0.15 0.15 88 1004.6
20260507004508 14 360 0.0 0.0 0.00 0.15 0.15 88 1004.6
20260507004006 14 252 0.0 0.0 0.00 0.15 0.15 88 1004.5
20260507003506 14 202 0.0 0.0 0.00 0.15 0.15 88 1004.6
20260507003006 14 252 0.0 0.0 0.03 0.15 0.15 88 1004.5
20260507002508 14 265 0.0 0.0 0.03 0.15 0.15 88 1004.4
20260507002006 14 194 0.0 0.0 0.03 0.15 0.15 88 1004.4
20260507001509 14 251 0.0 0.0 0.03 0.15 0.15 88 1004.3
20260507001004 14 274 0.0 0.0 0.03 0.15 0.15 88 1004.3
20260507000505 14 254 0.0 0.0 0.05 0.15 0.15 89 1004.2
20260507000004 14 238 0.0 0.0 0.05 0.15 0.15 89 1004.2
20260506235504 14 291 0.0 0.0 0.05 0.15 0.15 89 1004.1
20260506235003 14 277 0.0 0.0 0.05 0.15 0.15 89 1004.1
20260506234502 15 254 0.0 0.0 0.05 0.15 0.15 89 1004.1
20260506234004 15 29 0.0 0.0 0.05 0.15 0.15 89 1004.1
20260506233502 15 280 0.0 0.0 0.05 0.15 0.15 89 1004.0
20260506233002 15 213 0.0 0.0 0.03 0.13 0.13 89 1004.0
20260506232501 15 171 0.0 0.0 0.03 0.13 0.13 89 1004.0
20260506232002 15 269 0.0 0.0 0.03 0.13 0.13 89 1004.0
20260506231603 15 241 0.0 0.0 0.03 0.13 0.13 89 1003.9
20260506231100 15 271 0.0 0.0 0.03 0.13 0.13 89 1004.0
20260506230559 15 209 0.0 1.6 0.00 0.10 0.10 89 1004.1
20260506230059 15 279 0.0 0.0 0.00 0.10 0.10 89 1004.1
20260506225558 15 286 0.0 0.0 0.00 0.10 0.10 89 1004.0
20260506225059 15 207 0.0 0.0 0.00 0.10 0.10 89 1004.0
20260506224559 15 288 0.0 0.0 0.00 0.10 0.10 89 1004.1
20260506224056 15 254 0.0 0.0 0.00 0.10 0.10 89 1004.1
20260506223557 15 269 0.0 0.0 0.00 0.10 0.10 89 1004.1
20260506223056 15 278 0.0 0.0 0.03 0.10 0.10 89 1004.1
20260506222556 15 236 0.0 0.0 0.03 0.10 0.10 89 1004.2
20260506222056 15 162 0.0 0.0 0.03 0.10 0.10 89 1004.2
20260506221558 15 244 0.0 0.0 0.05 0.10 0.10 89 1004.3
20260506221054 15 263 0.0 0.0 0.05 0.10 0.10 89 1004.4
20260506220555 15 232 0.0 0.0 0.05 0.10 0.10 89 1004.4
20260506220053 15 280 0.0 0.0 0.05 0.10 0.10 89 1004.5
20260506215556 15 233 0.0 0.0 0.05 0.10 0.10 89 1004.4
20260506215052 15 255 0.0 0.0 0.05 0.10 0.10 89 1004.4
20260506214554 15 245 0.0 0.0 0.05 0.10 0.10 89 1004.5
20260506214050 15 247 0.0 0.0 0.05 0.10 0.10 90 1004.5
20260506213550 15 289 0.0 0.0 0.05 0.10 0.10 89 1004.7
20260506213109 15 269 0.0 0.0 0.03 0.08 0.08 89 1004.7
20260506212549 16 202 0.0 0.0 0.03 0.08 0.08 89 1004.8
20260506212050 16 262 0.0 0.0 0.03 0.08 0.08 89 1004.8
20260506211549 16 311 0.0 0.0 0.00 0.05 0.05 89 1004.8
20260506211049 16 236 0.0 0.0 0.00 0.05 0.05 88 1004.8
20260506210547 16 317 0.0 0.0 0.00 0.05 0.05 88 1004.8
20260506210048 16 244 0.0 0.0 0.00 0.05 0.05 88 1004.8
20260506205547 16 262 0.0 0.0 0.00 0.05 0.05 88 1004.9
20260506205047 16 244 0.0 1.6 0.00 0.05 0.05 88 1005.0
20260506204548 16 355 0.0 1.6 0.00 0.05 0.05 88 1005.0
20260506204047 16 279 0.0 0.0 0.03 0.05 0.05 88 1005.0
20260506203547 16 5 0.0 0.0 0.03 0.05 0.05 88 1005.1
20260506203047 16 253 0.0 0.0 0.03 0.05 0.05 87 1005.1
20260506202547 16 323 0.0 0.0 0.03 0.05 0.05 87 1005.1
20260506202046 16 220 0.0 0.0 0.05 0.05 0.05 86 1005.1
20260506201546 16 264 0.0 0.0 0.05 0.05 0.05 86 1005.1
20260506201045 16 275 0.0 1.6 0.05 0.05 0.05 86 1005.1
20260506200545 16 9 0.0 1.6 0.05 0.05 0.05 85 1005.0
20260506200045 16 281 0.0 0.0 0.05 0.05 0.05 85 1005.0
20260506195545 16 258 0.0 0.0 0.05 0.05 0.05 86 1004.9
20260506195047 16 253 0.0 0.0 0.05 0.05 0.05 85 1005.0
20260506194547 17 263 0.0 0.0 0.05 0.05 0.05 84 1004.9
20260506194043 17 255 0.0 0.0 0.03 0.03 0.03 82 1004.9
20260506193542 17 313 0.0 0.0 0.03 0.03 0.03 82 1005.1
20260506193043 17 26 0.0 0.0 0.03 0.03 0.03 81 1005.3
20260506192542 17 313 0.0 9.7 0.03 0.03 0.03 80 1005.3
20260506192042 17 327 0.0 9.7 0.00 0.00 0.00 78 1005.2
20260506191543 18 252 0.0 0.0 0.00 0.00 0.00 78 1005.3
20260506191042 18 311 0.0 0.0 0.00 0.00 0.00 77 1005.1
20260506190543 18 281 0.0 0.0 0.00 0.00 0.00 75 1005.1
20260506190043 19 28 0.0 0.0 0.00 0.00 0.00 73 1005.2
20260506185541 19 296 0.0 0.0 0.00 0.00 0.00 70 1005.2
20260506185041 20 323 0.0 0.0 0.00 0.00 0.00 68 1005.1
20260506184549 20 15 0.0 0.0 0.00 0.00 0.00 67 1005.2
20260506184040 20 223 0.0 0.0 0.00 0.00 0.00 66 1005.1
20260506183540 20 275 0.0 1.6 0.00 0.00 0.00 66 1005.3
20260506183052 20 330 0.0 1.6 0.00 0.00 0.00 66 1005.3